| time (UTC) | temp F | wind direction | speed MPH | gust MPH | rain 1hr in | rain 24hr in | rain mn in | humidity % | barometer mb |
| 20260504173156 | 81 | 82 | 3.0 | 0.0 | 0.00 | 0.00 | 0.00 | 42 | 1016.0 |
| 20260504171655 | 81 | 162 | 2.0 | 7.0 | 0.00 | 0.00 | 0.00 | 45 | 1016.1 |
| 20260504170154 | 80 | 91 | 4.0 | 5.0 | 0.00 | 0.00 | 0.00 | 46 | 1016.4 |
| 20260504160150 | 78 | 87 | 5.0 | 6.0 | 0.00 | 0.00 | 0.00 | 51 | 1017.1 |
| 20260504150146 | 77 | 35 | 5.0 | 11.0 | 0.00 | 0.00 | 0.00 | 53 | 1017.2 |
| 20260504140142 | 73 | 100 | 4.0 | 12.0 | 0.00 | 0.00 | 0.00 | 63 | 1017.2 |
| 20260504130138 | 69 | 91 | 4.0 | 11.0 | 0.00 | 0.00 | 0.00 | 70 | 1016.8 |
| 20260504120134 | 63 | 91 | 1.0 | 8.0 | 0.00 | 0.00 | 0.00 | 86 | 1016.6 |
| 20260504110130 | 59 | 101 | 0.0 | 0.0 | 0.00 | 0.00 | 0.00 | 91 | 1016.2 |
| 20260504100126 | 60 | 101 | 0.0 | 0.0 | 0.00 | 0.00 | 0.00 | 90 | 1015.8 |
| 20260504090122 | 61 | 101 | 0.0 | 0.0 | 0.00 | 0.00 | 0.00 | 88 | 1016.2 |
| 20260504081619 | 61 | 101 | 0.0 | 0.0 | 0.00 | 0.00 | 0.00 | 87 | 1016.0 |
| 20260504080118 | 62 | 101 | 0.0 | 0.0 | 0.00 | 0.00 | 0.00 | 87 | 1016.0 |
| 20260504070114 | 63 | 101 | 0.0 | 0.0 | 0.00 | 0.00 | 0.00 | 84 | 1016.4 |
| 20260504060110 | 64 | 101 | 0.0 | 0.0 | 0.00 | 0.00 | 0.00 | 82 | 1016.4 |
| 20260504050106 | 67 | 101 | 0.0 | 0.0 | 0.00 | 0.00 | 0.00 | 78 | 1016.9 |
| 20260504044605 | 67 | 114 | 0.0 | 0.0 | 0.00 | 0.00 | 0.00 | 77 | 1016.9 |
| 20260504043104 | 68 | 114 | 0.0 | 3.0 | 0.00 | 0.00 | 0.00 | 75 | 1017.1 |
| 20260504041603 | 70 | 111 | 0.0 | 0.0 | 0.00 | 0.00 | 0.00 | 74 | 1017.3 |
| 20260504034601 | 70 | 165 | 0.0 | 3.0 | 0.00 | 0.00 | 0.00 | 72 | 1017.5 |
| 20260504033100 | 70 | 173 | 0.0 | 0.0 | 0.00 | 0.00 | 0.00 | 73 | 1017.5 |
| 20260504031559 | 69 | 84 | 0.0 | 0.0 | 0.00 | 0.00 | 0.00 | 74 | 1017.4 |
| 20260504030058 | 68 | 84 | 0.0 | 0.0 | 0.00 | 0.00 | 0.00 | 74 | 1017.1 |
| 20260504024557 | 68 | 84 | 0.0 | 0.0 | 0.00 | 0.00 | 0.00 | 74 | 1017.1 |
| 20260504023056 | 68 | 84 | 0.0 | 0.0 | 0.00 | 0.00 | 0.00 | 75 | 1017.1 |
| 20260504021555 | 69 | 84 | 0.0 | 0.0 | 0.00 | 0.00 | 0.00 | 74 | 1016.8 |
| 20260504020054 | 69 | 84 | 0.0 | 0.0 | 0.00 | 0.00 | 0.00 | 73 | 1016.6 |
| 20260504014553 | 70 | 84 | 0.0 | 0.0 | 0.00 | 0.00 | 0.00 | 72 | 1016.5 |
| 20260504013052 | 71 | 84 | 0.0 | 0.0 | 0.00 | 0.00 | 0.00 | 70 | 1016.3 |
| 20260504011551 | 71 | 84 | 0.0 | 0.0 | 0.00 | 0.00 | 0.00 | 68 | 1016.0 |
| 20260504010050 | 72 | 84 | 0.0 | 0.0 | 0.00 | 0.00 | 0.00 | 67 | 1015.9 |
| 20260504004549 | 71 | 84 | 0.0 | 0.0 | 0.00 | 0.00 | 0.00 | 67 | 1015.7 |
| 20260504003048 | 73 | 84 | 0.0 | 0.0 | 0.00 | 0.00 | 0.00 | 66 | 1015.5 |
| 20260504001547 | 73 | 84 | 0.0 | 0.0 | 0.00 | 0.00 | 0.00 | 65 | 1015.4 |
| 20260504000046 | 74 | 335 | 0.0 | 6.0 | 0.00 | 0.00 | 0.00 | 64 | 1015.3 |
| 20260503234545 | 74 | 6 | 4.0 | 9.0 | 0.00 | 0.00 | 0.00 | 63 | 1015.3 |
| 20260503233044 | 75 | 357 | 5.0 | 8.0 | 0.00 | 0.00 | 0.00 | 62 | 1015.2 |
| 20260503231543 | 76 | 8 | 4.0 | 9.0 | 0.00 | 0.00 | 0.00 | 61 | 1015.2 |
| 20260503230042 | 76 | 359 | 0.0 | 3.0 | 0.00 | 0.00 | 0.00 | 60 | 1015.1 |
| 20260503224541 | 76 | 359 | 0.0 | 0.0 | 0.00 | 0.00 | 0.00 | 60 | 1015.1 |
| 20260503223040 | 76 | 359 | 0.0 | 6.0 | 0.00 | 0.00 | 0.00 | 59 | 1015.1 |
| 20260503221539 | 76 | 6 | 0.0 | 6.0 | 0.00 | 0.00 | 0.00 | 60 | 1015.1 |
| 20260503220038 | 77 | 359 | 0.0 | 6.0 | 0.00 | 0.00 | 0.00 | 59 | 1015.3 |
| 20260503214537 | 77 | 359 | 0.0 | 7.0 | 0.00 | 0.00 | 0.00 | 58 | 1015.1 |
| 20260503213036 | 77 | 357 | 0.0 | 0.0 | 0.00 | 0.00 | 0.00 | 56 | 1015.1 |
| 20260503211535 | 78 | 357 | 0.0 | 0.0 | 0.00 | 0.00 | 0.00 | 57 | 1015.1 |
| 20260503210034 | 78 | 357 | 0.0 | 0.0 | 0.00 | 0.00 | 0.00 | 56 | 1015.1 |
| 20260503204533 | 78 | 69 | 6.0 | 11.0 | 0.00 | 0.00 | 0.00 | 56 | 1015.2 |
| 20260503203032 | 80 | 359 | 5.0 | 9.0 | 0.00 | 0.00 | 0.00 | 55 | 1015.2 |
| 20260503201531 | 80 | 357 | 6.0 | 8.0 | 0.00 | 0.00 | 0.00 | 54 | 1015.4 |
| 20260503200030 | 80 | 229 | 4.0 | 7.0 | 0.00 | 0.00 | 0.00 | 51 | 1015.8 |
| 20260503194529 | 80 | 97 | 1.0 | 9.0 | 0.00 | 0.01 | 0.00 | 50 | 1015.9 |
| 20260503193028 | 79 | 59 | 4.0 | 8.0 | 0.00 | 0.01 | 0.00 | 52 | 1016.0 |
| 20260503191527 | 80 | 177 | 1.0 | 5.0 | 0.00 | 0.01 | 0.00 | 52 | 1016.3 |
| 20260503190026 | 80 | 117 | 5.0 | 8.0 | 0.00 | 0.01 | 0.00 | 52 | 1016.7 |
| 20260503184525 | 80 | 13 | 0.0 | 11.0 | 0.00 | 0.03 | 0.00 | 52 | 1016.8 |
| 20260503183024 | 79 | 20 | 3.0 | 10.0 | 0.00 | 0.03 | 0.00 | 53 | 1017.0 |
| 20260503181523 | 80 | 139 | 5.0 | 7.0 | 0.00 | 0.03 | 0.00 | 52 | 1017.2 |
| 20260503180022 | 79 | 52 | 5.0 | 6.0 | 0.00 | 0.03 | 0.00 | 53 | 1017.2 |
| 20260503174521 | 78 | 60 | 1.0 | 8.0 | 0.00 | 0.07 | 0.00 | 56 | 1017.4 |